Falfurrias, TX

9:50 AM CST on December 09, 2019 (GMT -0600)
Falfurrias

Weather History for KBKS - October, 2019

Change the Weather History Date:

Sunday, October 27, 2019

  Actual Average (KNQI) Record (KNQI)
Temperature  
Mean Temperature 64 °F -  
Max Temperature 87 °F 80 °F 91 °F (2010)
Min Temperature 42 °F 61 °F 42 °F (2019)
Growing Degree Days 14 (Base 50)    
Moisture  
Dew Point 49 °F    
Average Humidity 60    
Maximum Humidity 86    
Minimum Humidity 30    
Precipitation  
Precipitation 0.00 in - - ()
Sea Level Pressure  
Sea Level Pressure 29.92 in    
Wind  
Wind Speed 3 mph ()    
Max Wind Speed 14 mph    
Max Gust Speed 20 mph    
Visibility 10.0 miles    
Events      
Averages and records for this station are not official NWS values.
T = Trace of Precipitation, MM = Missing Value Source: Averaged Metar Reports

Daily Weather History Graph

Daily Weather History Graph

Search for Another Location

Airport or City:

Astronomy

Oct. 27, 2019 Rise Set
Actual Time 7:39 AM CDT 6:53 PM CDT
Civil Twilight 7:15 AM CDT 7:16 PM CDT
Nautical Twilight 6:48 AM CDT 7:44 PM CDT
Astronomical Twilight 6:20 AM CDT 8:11 PM CDT
Moon 6:59 AM CDT (10/27) 6:57 PM CDT (10/27)
Length of Visible Light 12h 01m
Length of Day
11h 13m
Waning Crescent, 0% of the Moon is Illuminated
Oct 27
Waning Crescent
Oct 27
New
Nov 4
First Quarter
Nov 12
Full
Nov 19
Last Quarter

Hourly Weather History & Observations

Time (CDT) Temp. Heat Index Dew Point Humidity Pressure Visibility Wind Dir Wind Speed Gust Speed Precip Events Conditions
12:15 AM 50.0 °F - 41.9 °F 74% 29.93 in 10.0 mi Calm Calm - N/A   Clear
12:35 AM 50.2 °F - 41.9 °F 73% 29.92 in 10.0 mi Calm Calm - N/A   Clear
12:55 AM 50.2 °F - 42.4 °F 75% 29.92 in 10.0 mi Calm Calm - N/A   Clear
1:15 AM 48.9 °F - 42.1 °F 77% 29.92 in 10.0 mi Calm Calm - N/A   Clear
1:35 AM 48.6 °F - 42.6 °F 80% 29.92 in 10.0 mi Calm Calm - N/A   Clear
1:55 AM 47.7 °F - 41.5 °F 79% 29.92 in 10.0 mi Calm Calm - N/A   Clear
2:15 AM 46.8 °F - 41.0 °F 80% 29.92 in 10.0 mi Calm Calm - N/A   Clear
2:35 AM 48.4 °F - 43.0 °F 82% 29.92 in 10.0 mi SSE 3.5 mph - N/A   Clear
2:55 AM 49.1 °F - 42.3 °F 77% 29.92 in 10.0 mi South 3.5 mph - N/A   Clear
3:15 AM 49.3 °F - 42.1 °F 76% 29.92 in 10.0 mi Calm Calm - N/A   Clear
3:35 AM 48.2 °F - 41.2 °F 77% 29.92 in 10.0 mi South 3.5 mph - N/A   Clear
3:55 AM 48.4 °F - 41.0 °F 76% 29.92 in 10.0 mi South 3.5 mph - N/A   Clear
4:15 AM 48.0 °F - 41.0 °F 77% 29.92 in 10.0 mi Calm Calm - N/A   Clear
4:35 AM 47.3 °F - 41.0 °F 79% 29.92 in 10.0 mi Calm Calm - N/A   Clear
4:55 AM 47.3 °F - 40.5 °F 77% 29.92 in 10.0 mi Calm Calm - N/A   Clear
5:15 AM 46.6 °F - 40.3 °F 79% 29.92 in 10.0 mi Calm Calm - N/A   Clear
5:35 AM 46.4 °F - 39.9 °F 78% 29.92 in 10.0 mi Calm Calm - N/A   Clear
5:55 AM 44.6 °F - 39.6 °F 82% 29.93 in 10.0 mi Calm Calm - N/A   Clear
6:15 AM 44.4 °F - 38.8 °F 81% 29.93 in 10.0 mi Calm Calm - N/A   Clear
6:35 AM 44.1 °F - 39.0 °F 82% 29.93 in 10.0 mi Calm Calm - N/A   Clear
6:55 AM 44.6 °F - 39.0 °F 81% 29.94 in 10.0 mi Calm Calm - N/A   Clear
7:15 AM 43.0 °F - 38.1 °F 83% 29.93 in 10.0 mi Calm Calm - N/A   Clear
7:35 AM 42.6 °F - 38.7 °F 86% 29.94 in 10.0 mi Calm Calm - N/A   Clear
7:55 AM 43.9 °F - 39.2 °F 84% 29.95 in 10.0 mi Calm Calm - N/A   Clear
8:15 AM 45.3 °F - 39.6 °F 80% 29.96 in 10.0 mi Calm Calm - N/A   Clear
8:35 AM 47.5 °F - 41.9 °F 81% 29.96 in 10.0 mi Calm Calm - N/A   Clear
8:55 AM 51.1 °F - 44.6 °F 78% 29.96 in 10.0 mi Calm Calm - N/A   Clear
9:15 AM 55.0 °F - 46.2 °F 72% 29.97 in 10.0 mi Calm Calm - N/A   Clear
9:35 AM 59.5 °F - 47.1 °F 63% 29.98 in 10.0 mi Calm Calm - N/A   Clear
9:55 AM 64.4 °F - 47.7 °F 55% 29.98 in 10.0 mi SSE 3.5 mph - N/A   Clear
10:15 AM 69.1 °F - 46.6 °F 45% 29.98 in 10.0 mi South 3.5 mph - N/A   Clear
10:35 AM 72.7 °F - 46.8 °F 40% 29.98 in 10.0 mi SE 6.9 mph - N/A   Clear
10:55 AM 74.7 °F - 46.2 °F 36% 29.98 in 10.0 mi SSE 6.9 mph - N/A   Clear
11:15 AM 76.8 °F - 46.0 °F 34% 29.98 in 10.0 mi SSE 9.2 mph - N/A   Clear
11:35 AM 78.8 °F - 47.1 °F 33% 29.97 in 10.0 mi SSE 9.2 mph 16.1 mph N/A   Clear
11:55 AM 79.9 °F - 48.6 °F 33% 29.97 in 10.0 mi South 9.2 mph 18.4 mph N/A   Clear
12:15 PM 80.6 °F - 49.3 °F 33% 29.96 in - SE 9.2 mph - N/A   Unknown
12:35 PM 81.9 °F - 50.0 °F 33% 29.95 in 10.0 mi SSE 9.2 mph 16.1 mph N/A   Clear
1:15 PM 83.1 °F - 50.5 °F 32% 29.93 in 10.0 mi SE 6.9 mph - N/A   Clear
1:35 PM 83.3 °F - 51.1 °F 33% 29.92 in 10.0 mi SSE 9.2 mph - N/A   Clear
1:55 PM 83.8 °F - 51.1 °F 32% 29.91 in 10.0 mi ESE 8.1 mph - N/A   Clear
2:15 PM 84.7 °F - 50.9 °F 31% 29.90 in 10.0 mi SE 8.1 mph - N/A   Clear
2:35 PM 85.1 °F - 52.0 °F 32% 29.89 in 10.0 mi SE 8.1 mph - N/A   Clear
2:55 PM 85.6 °F - 51.6 °F 31% 29.88 in 10.0 mi ESE 10.4 mph - N/A   Clear
3:15 PM 86.9 °F - 51.6 °F 30% 29.88 in 10.0 mi ESE 8.1 mph 19.6 mph N/A   Clear
3:30 PM 87.3 °F - 52.2 °F 30% 29.87 in 10.0 mi SE 10.4 mph - N/A   Clear
3:55 PM 87.1 °F 84.9 °F 53.1 °F 31% 29.87 in 10.0 mi SSE 10.4 mph - N/A   Clear
4:35 PM 87.1 °F 85.1 °F 53.8 °F 32% 29.87 in 10.0 mi SSE 11.5 mph 16.1 mph N/A   Clear
4:55 PM 86.7 °F 84.7 °F 53.8 °F 32% 29.86 in 10.0 mi ESE 12.7 mph 17.3 mph N/A   Clear
5:15 PM 84.9 °F 83.4 °F 54.3 °F 35% 29.87 in 10.0 mi ESE 13.8 mph 18.4 mph N/A   Clear
5:35 PM 83.5 °F 82.5 °F 55.2 °F 38% 29.87 in 10.0 mi ESE 13.8 mph 19.6 mph N/A   Clear
5:55 PM 82.0 °F 81.6 °F 55.9 °F 41% 29.87 in 10.0 mi ESE 12.7 mph - N/A   Clear
6:15 PM 80.6 °F 80.6 °F 56.3 °F 43% 29.87 in 10.0 mi ESE 11.5 mph - N/A   Clear
6:35 PM 78.8 °F - 56.5 °F 46% 29.88 in 10.0 mi ESE 12.7 mph 19.6 mph N/A   Clear
6:55 PM 77.0 °F - 56.5 °F 49% 29.88 in 10.0 mi ESE 6.9 mph - N/A   Clear
7:15 PM 75.6 °F - 56.5 °F 51% 29.89 in 10.0 mi ESE 9.2 mph - N/A   Clear
7:35 PM 75.0 °F - 56.3 °F 52% 29.90 in 10.0 mi ESE 8.1 mph - N/A   Clear
7:55 PM 73.8 °F - 56.3 °F 54% 29.90 in 10.0 mi ESE 6.9 mph - N/A   Clear
8:15 PM 72.7 °F - 56.5 °F 57% 29.91 in 10.0 mi ESE 6.9 mph - N/A   Clear
8:35 PM 71.6 °F - 56.5 °F 59% 29.92 in 10.0 mi ESE 4.6 mph - N/A   Clear
8:55 PM 70.2 °F - 56.7 °F 62% 29.92 in 10.0 mi ESE 5.8 mph - N/A   Clear
9:15 PM 69.8 °F - 56.8 °F 63% 29.92 in 10.0 mi ESE 3.5 mph - N/A   Clear
9:35 PM 68.9 °F - 57.2 °F 66% 29.92 in 10.0 mi ESE 4.6 mph - N/A   Clear
9:55 PM 68.9 °F - 57.2 °F 66% 29.93 in 10.0 mi ESE 5.8 mph - N/A   Clear
10:15 PM 68.5 °F - 57.9 °F 69% 29.93 in 10.0 mi ESE 4.6 mph - N/A   Clear
10:35 PM 68.9 °F - 58.6 °F 70% 29.93 in 10.0 mi ESE 5.8 mph - N/A   Clear
10:55 PM 69.1 °F - 59.4 °F 71% 29.92 in 10.0 mi ESE 5.8 mph - N/A   Unknown
11:15 PM 68.9 °F - 60.1 °F 73% 29.93 in 10.0 mi ESE 5.8 mph - N/A   Clear
11:35 PM 69.4 °F - 60.8 °F 74% 29.92 in 10.0 mi SE 6.9 mph - N/A   Clear
11:55 PM 69.4 °F - 61.2 °F 75% 29.92 in 10.0 mi SE 6.9 mph - N/A   Clear